GW4757 Weather Reports


Display with metric or nautical units.
time (UTC)temp
F
wind
direction
speed
MPH
gust
MPH
rain 1hr
in
rain 24hr
in
rain mn
in
humidity
%
barometer
mb
20260508134546 64 196 1.0 2.0 0.00 0.09 0.00 45 1018.0
20260508133055 63 107 1.0 2.0 0.00 0.09 0.00 48 1017.9
20260508131551 61 0 0.0 1.0 0.00 0.09 0.00 68 1017.8
20260508130054 59 0 0.0 1.0 0.00 0.09 0.00 73 1017.8
20260508124552 59 0 0.0 0.0 0.00 0.16 0.00 84 1017.7
20260508123055 54 0 0.0 2.0 0.00 0.16 0.00 98 1017.8
20260508121605 51 0 0.0 0.0 0.00 0.16 0.00 98 1017.7
20260508120045 44 0 0.0 0.0 0.00 0.16 0.00 98 1017.4
20260508114551 42 0 0.0 0.0 0.00 0.27 0.00 98 1017.2
20260508113051 42 0 0.0 0.0 0.00 0.27 0.00 97 1016.9
20260508111549 41 0 0.0 0.0 0.00 0.27 0.00 97 1016.8
20260508104545 41 0 0.0 0.0 0.00 0.27 0.00 97 1016.4
20260508103046 41 0 0.0 0.0 0.00 0.27 0.00 97 1016.2
20260508101549 41 0 0.0 0.0 0.00 0.27 0.00 97 1016.0
20260508100049 41 0 0.0 0.0 0.00 0.27 0.00 96 1015.9
20260508094603 41 0 0.0 0.0 0.00 0.27 0.00 96 1015.6
20260508093047 42 0 0.0 0.0 0.00 0.27 0.00 96 1015.6
20260508091546 42 0 0.0 0.0 0.00 0.27 0.00 96 1015.6
20260508090046 43 0 0.0 0.0 0.00 0.27 0.00 96 1015.4
20260508084548 44 0 0.0 0.0 0.00 0.27 0.00 96 1015.3
20260508083130 44 0 0.0 0.0 0.00 0.27 0.00 96 1015.4
20260508081554 44 0 0.0 0.0 0.00 0.27 0.00 96 1015.2
20260508080056 44 0 0.0 0.0 0.00 0.27 0.00 96 1015.2
20260508074556 44 0 0.0 0.0 0.00 0.28 0.00 96 1015.0
20260508073223 44 0 0.0 0.0 0.00 0.28 0.00 96 1015.0
20260508071652 44 0 0.0 0.0 0.00 0.28 0.00 96 1014.8
20260508070059 45 0 0.0 0.0 0.00 0.28 0.00 96 1014.8
20260508064711 45 0 0.0 0.0 0.00 0.34 0.00 96 1014.7
20260508063101 45 0 0.0 0.0 0.00 0.34 0.00 96 1014.5
20260508061550 45 0 0.0 1.0 0.00 0.34 0.00 96 1014.5
20260508060059 45 0 0.0 0.0 0.00 0.34 0.00 95 1014.6
20260508054555 45 0 0.0 0.0 0.00 0.38 0.00 95 1014.7
20260508053050 45 0 0.0 0.0 0.00 0.38 0.00 95 1014.5
20260508051554 45 0 0.0 0.0 0.00 0.38 0.00 94 1014.4
20260508050053 46 0 0.0 0.0 0.00 0.38 0.00 94 1014.3
20260508044544 46 0 0.0 0.0 0.00 0.42 0.00 94 1014.2
20260508043058 47 0 0.0 0.0 0.00 0.42 0.00 93 1014.2
20260508041552 47 0 0.0 0.0 0.00 0.42 0.00 94 1014.1
20260508040050 47 0 0.0 0.0 0.00 0.42 0.00 93 1014.1
20260508034555 48 0 0.0 1.0 0.00 0.42 0.42 93 1014.1
20260508033058 48 0 0.0 0.0 0.00 0.42 0.42 92 1014.0
20260508031551 48 0 0.0 1.0 0.00 0.42 0.42 91 1014.0
20260508030056 49 0 0.0 0.0 0.00 0.42 0.42 91 1014.0
20260508024558 50 252 0.0 2.0 0.00 0.47 0.42 91 1013.6
20260508023053 50 0 0.0 1.0 0.00 0.47 0.42 90 1013.6
20260508021551 51 0 0.0 0.0 0.00 0.47 0.42 89 1013.3
20260508020053 52 0 0.0 0.0 0.00 0.47 0.42 88 1013.0
20260508014546 52 0 0.0 1.0 0.00 0.50 0.42 86 1012.7
20260508013050 53 0 0.0 0.0 0.00 0.50 0.42 84 1012.4
20260508011558 54 11 0.0 1.0 0.00 0.50 0.42 80 1012.1
20260508010104 55 0 0.0 0.0 0.00 0.50 0.42 77 1011.7
20260508004732 57 0 0.0 3.0 0.00 0.55 0.42 77 1011.8
20260508003045 59 0 0.0 1.0 0.00 0.55 0.42 74 1011.6
20260508001550 60 0 0.0 4.0 0.00 0.55 0.42 68 1011.4
20260508000050 62 0 0.0 3.0 0.00 0.55 0.42 70 1011.5
20260507234549 62 0 1.0 4.0 0.00 0.57 0.42 70 1011.3
20260507233053 62 0 0.0 2.0 0.00 0.57 0.42 79 1011.1
20260507231606 61 0 0.0 1.0 0.00 0.57 0.42 82 1010.8
20260507230046 62 0 0.0 1.0 0.00 0.57 0.42 84 1010.5
20260507224604 63 0 0.0 2.0 0.00 0.57 0.42 88 1010.2
20260507223056 63 15 0.0 2.0 0.00 0.57 0.42 87 1009.9
20260507221551 64 20 0.0 2.0 0.00 0.57 0.42 87 1009.6
20260507220054 64 0 0.0 2.0 0.00 0.57 0.42 86 1009.4
20260507214604 63 0 0.0 4.0 0.00 0.57 0.42 87 1009.5
20260507213105 63 76 0.0 7.0 0.00 0.57 0.42 87 1009.2
20260507211555 64 49 0.0 2.0 0.00 0.57 0.42 88 1009.1
20260507210055 64 0 0.0 2.0 0.00 0.57 0.42 87 1009.0
20260507204557 64 350 1.0 7.0 0.00 0.57 0.42 88 1008.6
20260507203049 65 51 2.0 5.0 0.00 0.57 0.42 87 1008.5
20260507201545 66 99 1.0 7.0 0.00 0.57 0.42 88 1008.4
20260507200050 66 0 2.0 5.0 0.00 0.57 0.42 88 1008.4
20260507194550 65 11 2.0 6.0 0.01 0.57 0.42 92 1008.2
20260507193048 64 28 1.0 5.0 0.01 0.57 0.42 96 1008.5
20260507191546 63 339 3.0 6.0 0.08 0.57 0.42 91 1008.6
20260507190044 68 5 0.0 4.0 0.08 0.57 0.42 89 1008.5
20260507184548 71 0 0.0 1.0 0.07 0.56 0.41 89 1007.8
20260507183056 73 348 0.0 7.0 0.06 0.55 0.40 78 1008.0
20260507181549 74 168 1.0 9.0 0.00 0.49 0.34 78 1008.0
20260507180052 74 0 3.0 7.0 0.00 0.49 0.34 75 1008.0
20260507174546 74 159 2.0 11.0 0.00 0.51 0.34 76 1008.2
20260507173052 74 138 1.0 8.0 0.00 0.51 0.34 75 1008.3
20260507171555 74 124 2.0 6.0 0.00 0.51 0.34 77 1008.5
20260507170052 73 193 2.0 9.0 0.00 0.51 0.34 82 1008.5
20260507164556 71 154 3.0 7.0 0.00 0.52 0.34 85 1008.9
20260507163050 70 112 0.0 1.0 0.00 0.52 0.34 92 1009.0
20260507161553 69 219 2.0 5.0 0.00 0.52 0.34 91 1009.1
20260507160057 70 115 0.0 2.0 0.00 0.52 0.34 96 1009.0
20260507154549 68 88 0.0 3.0 0.01 0.54 0.34 96 1008.9
20260507153051 67 0 0.0 4.0 0.01 0.54 0.34 98 1009.0
20260507151548 66 205 0.0 3.0 0.01 0.54 0.34 98 1009.6
20260507150049 65 0 1.0 7.0 0.01 0.54 0.34 98 1009.4
20260507144550 64 0 0.0 1.0 0.00 0.52 0.33 99 1009.7
20260507143047 64 0 0.0 1.0 0.00 0.52 0.33 98 1009.8
20260507141547 64 0 0.0 0.0 0.00 0.52 0.33 98 1009.8
20260507140107 64 0 0.0 1.0 0.00 0.52 0.33 99 1009.3